KD9WYV Weather Reports


time (UTC)temp
C
wind
direction
speed
KPH
gust
KPH
rain 1hr
cm
rain 24hr
cm
rain mn
cm
humidity
%
barometer
mb
20260503174345 15 320 6.4 6.4 0.00 0.00 0.00 37 1017.3
20260503173845 15 55 11.3 17.7 0.00 0.00 0.00 36 1016.9
20260503173342 15 293 8.0 12.9 0.00 0.00 0.00 36 1017.3
20260503172838 15 206 19.3 25.7 0.00 0.00 0.00 36 1017.2
20260503172336 15 300 3.2 4.8 0.00 0.00 0.00 37 1017.2
20260503171832 15 298 9.7 11.3 0.00 0.00 0.00 36 1017.4
20260503171329 15 41 6.4 9.7 0.00 0.00 0.00 37 1017.3
20260503170826 15 207 9.7 12.9 0.00 0.00 0.00 36 1017.5
20260503170323 15 301 9.7 12.9 0.00 0.00 0.00 34 1017.5
20260503150715 14 262 14.5 17.7 0.00 0.00 0.00 37 1018.6
20260503150211 13 234 19.3 24.1 0.00 0.00 0.00 38 1018.6
20260503140136 11 253 11.3 14.5 0.00 0.00 0.00 43 1019.0
20260503131105 8 243 4.8 6.4 0.00 0.00 0.00 52 1019.0
20260503130602 8 236 11.3 17.7 0.00 0.00 0.00 51 1019.0
20260503110453 5 307 4.8 4.8 0.00 0.00 0.00 66 1018.7
20260503090344 4 268 3.2 3.2 0.00 0.00 0.00 68 1018.1
20260503081312 4 291 1.6 1.6 0.00 0.00 0.00 70 1018.3
20260503080808 4 259 1.6 3.2 0.00 0.00 0.00 69 1018.5
20260503080305 4 251 3.2 4.8 0.00 0.00 0.00 69 1018.2
20260503072742 5 300 1.6 3.2 0.00 0.00 0.00 68 1018.2
20260503072238 5 268 3.2 3.2 0.00 0.00 0.00 68 1018.2
20260503071735 5 247 3.2 3.2 0.00 0.00 0.00 68 1018.3
20260503071231 5 287 1.6 3.2 0.00 0.00 0.00 68 1018.3
20260503070728 5 264 3.2 3.2 0.00 0.00 0.00 67 1018.3
20260503070226 5 277 3.2 4.8 0.00 0.00 0.00 68 1018.4
20260503060151 3 301 0.0 0.0 0.00 0.00 0.00 71 1018.9
20260503054638 3 295 0.0 1.6 0.00 0.00 0.00 72 1019.0
20260503054135 3 301 0.0 0.0 0.00 0.00 0.00 72 1019.1
20260503053633 3 302 0.0 0.0 0.00 0.00 0.00 69 1018.9
20260503053132 3 302 0.0 0.0 0.00 0.00 0.00 68 1019.1
20260503052628 4 302 0.0 0.0 0.00 0.00 0.00 68 1019.1
20260503052124 4 302 0.0 0.0 0.00 0.00 0.00 66 1019.2
20260503051619 4 296 0.0 1.6 0.00 0.00 0.00 66 1019.0
20260503051118 4 304 0.0 0.0 0.00 0.00 0.00 65 1019.2
20260503050614 4 299 0.0 0.0 0.00 0.00 0.00 65 1019.3
20260503050110 4 299 0.0 0.0 0.00 0.00 0.00 66 1019.3
20260503045608 4 297 0.0 0.0 0.00 0.00 0.00 68 1019.2
20260503045105 4 297 0.0 1.6 0.00 0.00 0.00 70 1019.3
20260503044601 4 305 0.0 0.0 0.00 0.00 0.00 72 1019.2
20260503044059 4 301 0.0 1.6 0.00 0.00 0.00 72 1019.2
20260503043555 4 310 0.0 0.0 0.00 0.00 0.00 73 1019.1
20260503043052 3 305 0.0 1.6 0.00 0.00 0.00 75 1019.1
20260503042549 3 311 0.0 0.0 0.00 0.00 0.00 77 1019.1
20260503042045 3 335 0.0 0.0 0.00 0.00 0.00 77 1019.1
20260503041542 3 335 0.0 0.0 0.00 0.00 0.00 76 1018.9
20260503041040 3 336 0.0 0.0 0.00 0.00 0.00 76 1019.1
20260503040537 3 336 0.0 0.0 0.00 0.00 0.00 76 1019.2
20260503040034 3 336 0.0 0.0 0.00 0.00 0.00 76 1019.2
20260503035531 3 336 0.0 0.0 0.00 0.00 0.00 77 1019.1
20260503035029 3 336 0.0 0.0 0.00 0.00 0.00 79 1019.2
20260503034526 3 336 0.0 0.0 0.00 0.00 0.00 79 1019.0
20260503034022 3 336 0.0 0.0 0.00 0.00 0.00 75 1019.2
20260503033520 3 336 0.0 0.0 0.00 0.00 0.00 75 1019.3
20260503033018 3 336 0.0 0.0 0.00 0.00 0.00 72 1019.1
20260503032516 4 336 0.0 0.0 0.00 0.00 0.00 74 1019.1
20260503032014 4 336 0.0 0.0 0.00 0.00 0.00 74 1019.1
20260503031511 4 336 0.0 0.0 0.00 0.00 0.00 75 1019.3
20260503031008 4 336 0.0 0.0 0.00 0.00 0.00 76 1019.3
20260503030504 4 336 0.0 0.0 0.00 0.00 0.00 76 1019.3
20260503030001 4 336 0.0 0.0 0.00 0.00 0.00 75 1019.3
20260503025458 5 336 0.0 0.0 0.00 0.00 0.00 74 1019.1
20260503024956 5 336 0.0 0.0 0.00 0.00 0.00 73 1019.3
20260503024451 5 336 0.0 0.0 0.00 0.00 0.00 72 1019.0
20260503023949 5 340 0.0 0.0 0.00 0.00 0.00 73 1019.0
20260503023446 5 340 0.0 0.0 0.00 0.00 0.00 71 1019.4
20260503022943 5 340 0.0 0.0 0.00 0.00 0.00 70 1019.2
20260503022438 5 340 0.0 0.0 0.00 0.00 0.00 67 1019.1
20260503021934 6 340 0.0 0.0 0.00 0.00 0.00 63 1019.0
20260503021430 5 340 0.0 0.0 0.00 0.00 0.00 62 1019.2
20260503020928 5 340 0.0 0.0 0.00 0.00 0.00 61 1019.1
20260503020425 5 340 0.0 0.0 0.00 0.00 0.00 60 1019.1
20260503015922 5 340 0.0 0.0 0.00 0.00 0.00 60 1019.1
20260503015419 6 340 0.0 0.0 0.00 0.00 0.00 59 1018.9
20260503014914 6 340 0.0 0.0 0.00 0.00 0.00 57 1019.0
20260503014412 6 340 0.0 0.0 0.00 0.00 0.00 56 1018.7
20260503013910 6 340 0.0 0.0 0.00 0.00 0.00 56 1018.7
20260503013406 6 340 0.0 0.0 0.00 0.00 0.00 56 1018.9
20260503012903 6 340 0.0 0.0 0.00 0.00 0.00 55 1018.7
20260503012401 6 340 0.0 0.0 0.00 0.00 0.00 52 1018.9
20260503011857 7 340 0.0 0.0 0.00 0.00 0.00 49 1018.6
20260503011355 7 340 0.0 0.0 0.00 0.00 0.00 46 1018.6
20260503010851 8 340 0.0 0.0 0.00 0.00 0.00 45 1018.7
20260503010348 8 340 0.0 0.0 0.00 0.00 0.00 44 1018.9
20260503005845 8 341 0.0 0.0 0.00 0.00 0.00 42 1018.5
20260503005343 8 341 1.6 1.6 0.00 0.00 0.00 40 1018.7
20260503004838 9 328 1.6 3.2 0.00 0.00 0.00 38 1018.5
20260503004336 9 337 1.6 1.6 0.00 0.00 0.00 39 1018.7
20260503003834 9 315 3.2 4.8 0.00 0.00 0.00 38 1018.5
20260503003330 10 348 3.2 3.2 0.00 0.00 0.00 37 1018.5
20260503002827 10 344 3.2 3.2 0.00 0.00 0.00 37 1018.6
20260503002324 10 328 3.2 3.2 0.00 0.00 0.00 36 1018.5
20260503001820 10 328 1.6 3.2 0.00 0.00 0.00 36 1018.5
20260503001317 10 328 3.2 4.8 0.00 0.00 0.00 36 1018.4
20260503000814 10 346 3.2 3.2 0.00 0.00 0.00 36 1018.4
20260503000312 10 350 1.6 1.6 0.00 0.00 0.00 36 1018.5
20260502235809 10 318 9.7 12.9 0.00 0.00 0.00 35 1018.3
20260502235306 11 317 1.6 3.2 0.00 0.00 0.00 36 1018.3
20260502234803 10 309 3.2 3.2 0.00 0.00 0.00 35 1018.3
20260502234300 10 321 3.2 3.2 0.00 0.00 0.00 36 1018.2
20260502233756 10 304 4.8 4.8 0.00 0.00 0.00 35 1018.3
20260502233253 11 322 4.8 6.4 0.00 0.00 0.00 34 1018.2
20260502232749 11 313 3.2 4.8 0.00 0.00 0.00 34 1018.0
20260502232246 10 352 3.2 3.2 0.00 0.00 0.00 34 1018.2
20260502231743 10 1 6.4 9.7 0.00 0.00 0.00 35 1018.2
20260502231240 11 296 4.8 4.8 0.00 0.00 0.00 33 1018.1
20260502230739 11 330 3.2 3.2 0.00 0.00 0.00 35 1018.4
20260502230237 10 331 3.2 3.2 0.00 0.00 0.00 36 1018.5
20260502225732 10 287 9.7 12.9 0.00 0.00 0.00 35 1018.4
20260502225230 10 297 8.0 9.7 0.00 0.00 0.00 35 1018.5
20260502224726 10 312 9.7 11.3 0.00 0.00 0.00 35 1018.5
20260502224223 11 320 6.4 9.7 0.00 0.00 0.00 35 1018.5
20260502223720 11 345 9.7 12.9 0.00 0.00 0.00 34 1018.5
20260502223218 11 318 12.9 14.5 0.00 0.00 0.00 34 1018.6
20260502222715 11 329 8.0 9.7 0.00 0.00 0.00 33 1018.4
20260502222212 11 308 12.9 17.7 0.00 0.00 0.00 33 1018.5
20260502221708 11 331 9.7 14.5 0.00 0.00 0.00 32 1018.5
20260502221205 12 75 6.4 9.7 0.00 0.00 0.00 33 1018.4
20260502220701 11 333 3.2 3.2 0.00 0.00 0.00 34 1018.3
20260502220158 11 315 3.2 4.8 0.00 0.00 0.00 34 1018.2
20260502215654 11 5 14.5 20.9 0.00 0.00 0.00 33 1018.3
20260502215151 11 351 6.4 12.9 0.00 0.00 0.00 34 1018.5
20260502214649 11 325 8.0 9.7 0.00 0.00 0.00 34 1018.4
20260502214146 11 352 4.8 6.4 0.00 0.00 0.00 36 1018.4
20260502213643 11 331 3.2 4.8 0.00 0.00 0.00 36 1018.4
20260502213140 10 353 8.0 9.7 0.00 0.00 0.00 36 1018.4
20260502212639 10 4 14.5 17.7 0.00 0.00 0.00 37 1018.5
20260502212137 10 350 12.9 16.1 0.00 0.00 0.00 36 1018.6
20260502211632 10 316 8.0 12.9 0.00 0.00 0.00 36 1018.4
20260502211129 10 18 9.7 12.9 0.00 0.00 0.00 36 1018.6
20260502210627 11 273 14.5 16.1 0.00 0.00 0.00 35 1018.2
20260502210124 11 329 9.7 12.9 0.00 0.00 0.00 34 1018.4
20260502205620 11 290 12.9 16.1 0.00 0.00 0.00 34 1018.3
20260502205117 11 311 14.5 20.9 0.00 0.00 0.00 34 1018.5
20260502204614 10 15 6.4 11.3 0.00 0.00 0.00 35 1018.6
20260502204112 11 307 14.5 24.1 0.00 0.00 0.00 37 1018.5
20260502203609 10 345 9.7 14.5 0.00 0.00 0.00 38 1018.6
20260502203106 11 6 11.3 14.5 0.00 0.00 0.00 36 1018.4
20260502202601 10 12 6.4 11.3 0.00 0.00 0.00 38 1018.6
20260502202100 10 48 1.6 3.2 0.00 0.00 0.00 38 1018.5
20260502201555 10 304 3.2 4.8 0.00 0.00 0.00 40 1018.6
20260502201052 11 312 8.0 9.7 0.00 0.00 0.00 37 1018.7
20260502200548 10 349 8.0 11.3 0.00 0.00 0.00 38 1018.7
20260502200046 11 10 4.8 11.3 0.00 0.00 0.00 37 1018.7
20260502195544 11 345 9.7 12.9 0.00 0.00 0.00 38 1018.9
20260502195039 10 309 6.4 9.7 0.00 0.00 0.00 36 1018.7
20260502194536 10 20 9.7 12.9 0.00 0.00 0.00 37 1019.1
20260502194032 11 270 14.5 22.5 0.00 0.00 0.00 39 1018.7
20260502193530 11 98 3.2 3.2 0.00 0.00 0.00 39 1018.7
20260502193026 11 307 8.0 9.7 0.00 0.00 0.00 35 1018.9
20260502192522 11 31 8.0 11.3 0.00 0.00 0.00 40 1018.9
20260502192020 11 14 17.7 24.1 0.00 0.00 0.00 37 1019.2
20260502191517 10 329 19.3 24.1 0.00 0.00 0.00 39 1019.1
20260502191015 10 312 6.4 9.7 0.00 0.00 0.00 38 1019.1
20260502190512 11 5 6.4 9.7 0.00 0.00 0.00 37 1019.3
20260502190008 10 336 12.9 20.9 0.00 0.00 0.00 39 1019.4
20260502185503 11 290 6.4 6.4 0.00 0.00 0.00 38 1019.0
20260502185001 10 355 11.3 12.9 0.00 0.00 0.00 39 1019.3
20260502184455 10 318 4.8 4.8 0.00 0.00 0.00 41 1019.3
20260502183953 10 276 3.2 3.2 0.00 0.00 0.00 38 1019.2
20260502183449 10 0 24.1 29.0 0.00 0.00 0.00 40 1019.4
20260502182944 10 337 8.0 11.3 0.00 0.00 0.00 44 1019.4
20260502182440 9 353 12.9 20.9 0.00 0.00 0.00 41 1019.5
20260502181936 10 25 4.8 6.4 0.00 0.00 0.00 42 1019.5
20260502181434 10 346 6.4 9.7 0.00 0.00 0.00 40 1019.4
20260502180933 11 19 3.2 3.2 0.00 0.00 0.00 41 1019.5
20260502180430 10 65 1.6 1.6 0.00 0.00 0.00 45 1019.4